This demonstration page uses our WeatherBlox Daily Observations layout. Learn more.

Left ArrowRight Arrow

30.21309, -93.2044

Hourly Observations for January 13, 2022

Temp ( °F °C ) Dew Point ( °F °C ) Humidity (%) Winds ( mph kmh ) Pressure ( in mb ) Visibility ( mi km ) Precip ( " mm )
12:15 am 00:15 Clear 51 10.5 44 6.8 78 78 WSW 9 15 30.24 1024 10 16 0.00 0.00
12:35 am 00:35 Clear 51 10.7 43 6.2 74 74 W 7 11 30.23 1024 10 16 0.00 0.00
12:55 am 00:55 Clear 48 9 42 5.8 81 81 W 5 7 30.23 1024 10 16 0.00 0.00
1:15 am 01:15 Clear 51 10.5 44 6.5 76 76 W 7 11 30.22 1023 10 16 0.00 0.00
1:35 am 01:35 Clear 51 10.7 44 6.6 76 76 W 7 11 30.22 1023 10 16 0.00 0.00
1:55 am 01:55 Clear 51 10.5 43 6.3 75 75 W 8 13 30.21 1023 10 16 0.00 0.00
2:15 am 02:15 Clear 51 10.6 44 6.4 75 75 W 7 11 30.22 1023 10 16 0.00 0.00
2:35 am 02:35 Clear 49 9.2 42 5.5 78 78 WNW 5 7 30.22 1023 10 16 0.00 0.00
2:55 am 02:55 Clear 47 8.4 42 5.6 83 83 WNW 5 7 30.21 1023 10 16 0.00 0.00
3:15 am 03:15 Clear 47 8.2 42 5.5 83 83 WNW 3 6 30.20 1023 10 16 0.00 0.00
3:35 am 03:35 Clear 47 8.2 42 5.6 84 84 Calm 30.21 1023 10 16 0.00 0.00
3:55 am 03:55 Clear 47 8.2 42 5.5 83 83 NW 3 6 30.21 1023 10 16 0.00 0.00
4:15 am 04:15 Clear 47 8.6 42 5.7 82 82 WNW 5 7 30.20 1023 10 16 0.00 0.00
4:35 am 04:35 Clear 47 8.4 42 5.6 83 83 W 3 6 30.19 1022 10 16 0.00 0.00
4:55 am 04:55 Clear 47 8.4 42 5.7 83 83 Calm 30.18 1022 10 16 0.00 0.00
5:15 am 05:15 Clear 46 7.5 41 5.1 85 85 Calm 30.19 1022 10 16 0.00 0.00
5:35 am 05:35 Clear 46 8 43 6 87 87 WNW 3 6 30.19 1022 10 16 0.00 0.00
6:00 am 06:00 Mostly Clear 45 7 41 5 87 87 WNW 7 11 30.19 1022 10 16 0.00 0.00
6:45 am 06:45 Mostly Clear 46 8 43 6 87 87 WNW 7 11 30.20 1023 10 16 0.00 0.00
7:55 am 07:55 Mostly Sunny 43 6 39 4 87 87 Calm 30.20 1023 10 16 0.00 0.00
8:45 am 08:45 Mostly Sunny 52 11 45 7 77 77 WNW 7 11 30.20 1023 10 16 0.00 0.00
9:55 am 09:55 Mostly Sunny 52 11 45 7 77 77 WNW 7 11 30.21 1023 10 16 0.00 0.00
10:47 am 10:47 Mostly Sunny 61 16 45 7 55 55 W 14 22 30.20 1023 10 16 0.00 0.00
11:47 am 11:47 Mostly Sunny 64 18 43 6 46 46 WNW 13 20 30.18 1022 10 16 0.00 0.00
12:45 pm 12:45 Mostly Sunny 66 19 41 5 40 40 WNW 13 20 30.13 1020 10 16 0.00 0.00
1:53 pm 13:53 Mostly Sunny 70 21 41 5 35 35 WNW 13 20 30.08 1019 10 16 0.00 0.00
2:45 pm 14:45 Mostly Sunny 70 21 39 4 33 33 W 8 13 30.06 1018 10 16 0.00 0.00
3:50 pm 15:50 Mostly Sunny 70 21 39 4 33 33 WNW 7 11 30.04 1017 10 16 0.00 0.00
4:55 pm 16:55 Mostly Sunny 70 21 39 4 33 33 W 7 11 30.03 1017 10 16 0.00 0.00
5:45 pm 17:45 Mostly Clear 70 21 39 4 33 33 SW 7 11 30.04 1017 10 16 0.00 0.00
6:50 pm 18:50 Mostly Clear 61 16 45 7 55 55 W 6 9 30.06 1018 10 16 0.00 0.00
7:50 pm 19:50 Mostly Clear 57 14 46 8 67 67 WSW 6 9 30.06 1018 10 16 0.00 0.00
8:45 pm 20:45 Mostly Clear 48 9 45 7 87 87 Calm 30.06 1018 10 16 0.00 0.00
9:45 pm 21:45 Mostly Clear 54 12 46 8 77 77 Calm 30.06 1018 10 16 0.00 0.00
10:15 pm 22:15 Clear 54 12 48 9 82 82 SW 6 9 30.06 1018 10 16 0.00 0.00
10:35 pm 22:35 Clear 53 11.9 48 9 83 83 SW 6 9 30.06 1018 10 16 0.00 0.00
10:55 pm 22:55 Clear 53 11.8 48 9 83 83 SW 5 7 30.06 1018 10 16 0.00 0.00
11:15 pm 23:15 Clear 53 11.7 47 8.6 81 81 WSW 5 7 30.06 1018 10 16 0.00 0.00
11:35 pm 23:35 Clear 52 10.9 46 8 82 82 WSW 5 7 30.05 1018 10 16 0.00 0.00
11:55 pm 23:55 Clear 49 9.3 46 7.6 89 89 WSW 3 6 30.05 1018 10 16 0.00 0.00

Powered by AerisWeather